This is the latest recevied weather packets stored in our database for station/object N3MFL. If no packets are shown the sender has not sent any weather packets the latest 10 day(s).
| Time | Temp. | Humidity | Pressure | Rain* | Wind** | Luminosity | Snow |
|---|---|---|---|---|---|---|---|
| 1777936555 | 15.56° C | 54% | 1010.5 hPa | 0 mm | - | 19 W/m² | - |
| 1777936251 | 15.56° C | 53% | 1010.4 hPa | 0 mm | - | 25 W/m² | - |
| 1777935947 | 15.56° C | 54% | 1010.5 hPa | 0 mm | - | 32 W/m² | - |
| 1777935646 | 15.56° C | 54% | 1010.3 hPa | 0 mm | - | 34 W/m² | - |
| 1777935343 | 15.56° C | 53% | 1010.2 hPa | 0 mm | - | 31 W/m² | - |
| 1777935040 | 16.11° C | 52% | 1010.3 hPa | 0 mm | - | 29 W/m² | - |
| 1777934737 | 16.11° C | 51% | 1010.1 hPa | 0 mm | - | 26 W/m² | - |
| 1777934434 | 16.67° C | 50% | 1010.2 hPa | 0 mm | - | 29 W/m² | - |
| 1777934131 | 16.67° C | 49% | 1010 hPa | 0 mm | - | 39 W/m² | - |
| 1777933826 | 17.22° C | 49% | 1009.9 hPa | 0 mm | - | 41 W/m² | - |
| 1777933523 | 17.22° C | 49% | 1009.9 hPa | 0 mm | - | 44 W/m² | - |
| 1777933221 | 17.78° C | 48% | 1009.9 hPa | 0 mm | - | 47 W/m² | - |
| 1777932918 | 18.89° C | 42% | 1009.9 hPa | 0 mm | - | 66 W/m² | - |
| 1777932615 | 18.89° C | 42% | 1009.9 hPa | 0 mm | - | 127 W/m² | - |
| 1777932311 | 19.44° C | 41% | 1009.8 hPa | 0 mm | - | 139 W/m² | - |
| 1777932008 | 19.44° C | 41% | 1009.7 hPa | 0 mm | - | 152 W/m² | - |
| 1777931705 | 19.44° C | 41% | 1009.7 hPa | 0 mm | - | 163 W/m² | - |
| 1777931402 | 19.44° C | 42% | 1009.9 hPa | 0 mm | - | 174 W/m² | - |
| 1777931098 | 18.89° C | 42% | 1009.7 hPa | 0 mm | - | 187 W/m² | - |
| 1777930795 | 19.44° C | 45% | 1009.7 hPa | 0 mm | - | 204 W/m² | - |
| 1777930490 | 19.44° C | 41% | 1009.6 hPa | 0 mm | - | 215 W/m² | - |
| 1777930188 | 20° C | 40% | 1009.5 hPa | 0 mm | - | 231 W/m² | - |
| 1777929884 | 19.44° C | 41% | 1009.6 hPa | 0 mm | - | 240 W/m² | - |
| 1777929582 | 19.44° C | 41% | 1009.7 hPa | 0 mm | - | 253 W/m² | - |
| 1777929278 | 20° C | 40% | 1009.5 hPa | 0 mm | - | 272 W/m² | - |
* Rain latest hour (hover to see other rain measurements)
** Current wind speed in m/s (hover to see current wind gust speed)